Weather reports worldwide

Advertisment
Cluanie Inn No 3, United Kingdom (99117): temperature & dewpoint: 19.01.2017 01:00:00 - 25.01.2017 01:00:00 (GMT)Cluanie Inn No 3, United Kingdom (99117): precipitation: 19.01.2017 01:00:00 - 25.01.2017 01:00:00 (GMT)
Date & Time tt [°C] td [°C] rr [mm]
25.01.2017 01:00:00 10,4 7,2 -
25.01.2017 00:00:00 10,3 6,3 0,0
24.01.2017 23:00:00 10,5 5,2 0,0
24.01.2017 22:00:00 10,2 4,9 0,0
24.01.2017 21:00:00 9,9 4,3 0,0
24.01.2017 20:00:00 9,7 3,5 0,0
24.01.2017 19:00:00 9,1 3,5 0,0
24.01.2017 18:00:00 8,7 3,8 0,0
24.01.2017 17:00:00 8,6 3,8 0,0
24.01.2017 16:00:00 7,8 4,6 0,0
24.01.2017 15:00:00 8,6 4,2 0,0
24.01.2017 14:00:00 9,2 4,1 0,0
24.01.2017 13:00:00 9,3 4,5 0,0
24.01.2017 12:00:00 9,2 4,2 0,0
24.01.2017 11:00:00 8,9 4,4 0,0
24.01.2017 10:00:00 8,9 4,6 0,0
24.01.2017 09:00:00 8,5 5,0 0,0
24.01.2017 08:00:00 8,5 5,6 0,4
24.01.2017 07:00:00 8,7 6,5 0,4
24.01.2017 06:00:00 5,9 5,6 1,2
24.01.2017 05:00:00 6,6 5,3 0,4
24.01.2017 04:00:00 6,6 5,0 0,0
24.01.2017 03:00:00 6,8 3,8 0,2
24.01.2017 02:00:00 6,9 2,6 0,0
24.01.2017 01:00:00 7,5 1,5 0,0
24.01.2017 00:00:00 7,5 1,3 0,0
23.01.2017 23:00:00 7,7 1,2 0,0
23.01.2017 22:00:00 7,3 1,1 0,0
23.01.2017 21:00:00 6,2 0,4 0,0
23.01.2017 20:00:00 6,7 1,1 0,0
23.01.2017 19:00:00 6,2 1,2 0,0
23.01.2017 18:00:00 6,2 1,5 0,0
23.01.2017 17:00:00 5,6 1,3 0,0
23.01.2017 16:00:00 5,4 1,1 0,0
23.01.2017 15:00:00 5,4 0,3 0,0
23.01.2017 14:00:00 4,9 -0,1 0,0
23.01.2017 13:00:00 3,5 -2,2 0,0
23.01.2017 12:00:00 3,9 -2,3 0,0
23.01.2017 11:00:00 3,2 -1,8 0,0
23.01.2017 10:00:00 2,8 -1,0 0,0
23.01.2017 09:00:00 1,1 -0,1 0,0
23.01.2017 08:00:00 -2,0 -2,7 0,0
23.01.2017 07:00:00 -1,3 -1,8 0,0
23.01.2017 06:00:00 -0,4 -1,1 0,0
23.01.2017 05:00:00 0,4 -0,6 0,0
23.01.2017 04:00:00 1,7 0,2 0,0
23.01.2017 03:00:00 3,1 1,7 0,0
23.01.2017 02:00:00 3,6 1,8 0,0
23.01.2017 01:00:00 3,7 1,6 0,0
23.01.2017 00:00:00 4,3 1,6 0,0
22.01.2017 23:00:00 4,4 1,5 0,0
22.01.2017 22:00:00 4,4 1,5 0,0
22.01.2017 21:00:00 3,7 1,3 0,0
22.01.2017 20:00:00 4,2 0,8 0,0
22.01.2017 19:00:00 3,8 1,1 0,0
22.01.2017 18:00:00 3,1 1,6 0,0
22.01.2017 17:00:00 2,8 1,7 0,0
22.01.2017 16:00:00 2,4 1,6 0,0
22.01.2017 15:00:00 2,5 1,6 0,2
22.01.2017 14:00:00 2,8 1,9 0,0
22.01.2017 13:00:00 2,4 1,4 0,0
22.01.2017 12:00:00 1,8 1,2 0,2
22.01.2017 11:00:00 1,2 0,7 0,0
22.01.2017 10:00:00 1,0 0,5 0,0
22.01.2017 09:00:00 0,8 0,1 0,0
22.01.2017 08:00:00 1,4 0,2 0,0
22.01.2017 07:00:00 1,8 0,4 0,0
22.01.2017 06:00:00 1,5 0,4 0,0
22.01.2017 05:00:00 1,2 -0,3 0,0
22.01.2017 04:00:00 1,0 -0,3 0,0
22.01.2017 03:00:00 1,0 -0,3 0,0
22.01.2017 02:00:00 -0,7 -2,0 0,0
22.01.2017 01:00:00 -0,4 -1,9 0,0
22.01.2017 00:00:00 -0,9 -2,5 0,0
21.01.2017 23:00:00 -0,6 -3,4 0,0
21.01.2017 22:00:00 0,3 -2,0 0,0
21.01.2017 21:00:00 0,4 -2,8 0,0
21.01.2017 20:00:00 2,1 -2,0 0,0
21.01.2017 19:00:00 3,5 -1,3 0,0
21.01.2017 18:00:00 3,8 -1,4 0,0
21.01.2017 17:00:00 2,4 -1,6 0,0
21.01.2017 16:00:00 3,9 -1,0 0,0
21.01.2017 15:00:00 5,7 -1,1 0,0
21.01.2017 14:00:00 5,7 -0,5 0,0
21.01.2017 13:00:00 3,0 -0,7 0,0
21.01.2017 12:00:00 1,0 -2,1 0,2
21.01.2017 11:00:00 0,2 -1,3 0,0
21.01.2017 10:00:00 0,0 -1,9 0,0
21.01.2017 09:00:00 0,3 -2,4 0,0
21.01.2017 08:00:00 1,0 -1,0 0,0
21.01.2017 07:00:00 0,0 -0,8 0,0
21.01.2017 06:00:00 -0,1 -0,4 0,0
21.01.2017 05:00:00 -0,9 -1,3 0,0
21.01.2017 04:00:00 0,6 0,3 0,0
21.01.2017 03:00:00 -1,3 -2,1 0,0
21.01.2017 02:00:00 -1,8 -2,6 0,0
21.01.2017 01:00:00 0,6 0,2 0,0
21.01.2017 00:00:00 -0,7 -0,8 0,0
20.01.2017 23:00:00 -0,3 -0,4 0,0
20.01.2017 22:00:00 -0,4 -0,6 0,0
20.01.2017 21:00:00 -2,0 -2,3 0,0
20.01.2017 20:00:00 -1,1 -1,7 0,0
20.01.2017 19:00:00 -0,5 -1,0 0,0
20.01.2017 18:00:00 -0,9 -1,5 0,0
20.01.2017 17:00:00 0,5 0,1 0,0
20.01.2017 16:00:00 0,6 -0,3 0,0
20.01.2017 15:00:00 1,8 -0,1 0,0
20.01.2017 14:00:00 5,0 2,1 0,0
20.01.2017 13:00:00 1,6 0,4 0,0
20.01.2017 12:00:00 2,9 2,3 0,0
20.01.2017 11:00:00 -0,2 -0,5 0,0
20.01.2017 10:00:00 -0,6 -1,1 0,0
20.01.2017 09:00:00 0,3 -0,1 0,0
20.01.2017 08:00:00 -0,6 -1,6 0,0
20.01.2017 07:00:00 1,0 0,6 0,0
20.01.2017 06:00:00 1,4 0,6 0,0
20.01.2017 05:00:00 2,6 1,2 0,0
20.01.2017 04:00:00 4,5 2,0 0,0
20.01.2017 03:00:00 5,8 3,2 0,0
20.01.2017 02:00:00 6,1 3,5 0,0
20.01.2017 01:00:00 6,5 3,4 0,0
20.01.2017 00:00:00 6,5 3,2 0,0
19.01.2017 23:00:00 6,7 3,6 0,0
19.01.2017 22:00:00 6,9 3,8 0,0
19.01.2017 21:00:00 7,1 4,0 0,0
19.01.2017 20:00:00 7,3 4,1 0,0
19.01.2017 19:00:00 7,4 3,8 0,0
19.01.2017 18:00:00 7,4 3,9 0,0
19.01.2017 17:00:00 7,5 4,1 0,0
19.01.2017 16:00:00 7,6 4,3 0,0
19.01.2017 15:00:00 7,8 4,3 0,0
19.01.2017 14:00:00 8,0 4,2 0,0
19.01.2017 13:00:00 8,1 3,9 0,0
19.01.2017 12:00:00 8,3 3,9 0,0
19.01.2017 11:00:00 8,2 3,8 0,0
19.01.2017 10:00:00 8,2 3,7 -
19.01.2017 09:00:00 8,0 3,6 0,0
19.01.2017 08:00:00 7,6 3,8 0,0
19.01.2017 07:00:00 7,7 4,0 0,0
19.01.2017 06:00:00 8,0 4,0 0,0
19.01.2017 05:00:00 7,9 4,3 0,0
19.01.2017 04:00:00 8,1 4,6 0,0
19.01.2017 03:00:00 8,2 4,8 0,0
19.01.2017 02:00:00 8,0 4,9 0,0
19.01.2017 01:00:00 7,9 5,2 0,0

tt = temperature
td = dewpoint
rr = precipitation

Next stations